Regional Weather Roundup
Issued by NWS

Home | Current Version | Previous Version | Graphics & Text | Print | Product List | Glossary On
Versions: 1 2 3 4 5 6 7 8 9 10 11 12 13 14 15 16 17 18 19 20 21 22 23 24 25 26 27 28 29 30 31 32 33 34 35 36 37 38 39 40 41 42 43 44 45 46 47 48 49 50
000
ASUS44 KMEG 272310
RWRTN
TENNESSEE HOURLY STATE WEATHER ROUNDUP
NATIONAL WEATHER SERVICE MEMPHIS TN
600 PM CDT TUE JUN 27 2017

TNZ002-004-019-021-049-052-054-088>092-280000-
WEST TENNESSEE

CITY           SKY/WX    TMP DP  RH WIND       PRES   REMARKS
MEMPHIS INTL   MOSUNNY   83  61  47 CALM      30.03F
NWS MEMPHIS      N/A     83 N/A N/A MISG        N/A
JACKSON        SUNNY     82  63  52 E5        30.05F
SOMERVILLE     MOSUNNY   82  64  54 CALM      30.03F
UNION CITY     PTSUNNY   81  57  44 VRB6      30.04S
BOLIVAR        PTSUNNY   82  63  51 VRB5      30.04F
HUNTINGDON     SUNNY     81  59  47 NE7       30.04F
LEXINGTON      SUNNY     81  59  47 CALM      30.05F
SELMER         SUNNY     79  63  57 NE5       30.05F
SAVANNAH       SUNNY     81  61  50 CALM      30.04F
$$

TNZ008-025-027-028-033-062-065-066-280000-
NORTH MIDDLE TENNESSEE

CITY           SKY/WX    TMP DP  RH WIND       PRES   REMARKS
NASHVILLE      MOSUNNY   81  54  39 E7        30.07F
PORTLAND       MOSUNNY   77  52  41 CALM      30.07F
CLARKSVILLE    MOSUNNY   80  52  37 N5        30.06F
SMYRNA         MOSUNNY   82  55  39 NE7       30.07F
COOKEVILLE     MOSUNNY   77  54  44 E5        30.09S
GALLATIN       SUNNY     79  50  36 CALM      30.10S
CROSSVILLE     SUNNY     74  49  41 N6        30.13S
$$

TNZ061-075-076-078-094-096-097-280000-
SOUTH MIDDLE TENNESSEE

CITY           SKY/WX    TMP DP  RH WIND       PRES   REMARKS
FAYETTEVILLE   SUNNY     77  57  50 N7        30.07F
TULLAHOMA      SUNNY     77  52  41 CALM      30.09F
WINCHESTER     SUNNY     79  55  44 N6        30.08S
MCMINNVILLE    SUNNY     79  57  47 NE6       30.09S
COLUMBIA       SUNNY     81  54  39 NE6       30.04F
SHELBYVILLE    SUNNY     79  55  44 VRB6      30.07F
$$

TNZ017-018-042-046-047-280000-
NORTHEAST TENNESSEE

CITY           SKY/WX    TMP DP  RH WIND       PRES   REMARKS
TRI CITIES     MOSUNNY   76  51  41 VRB3      30.10S
ELIZABETHTON   CLOUDY    75  52  43 NW5       30.10R
$$

TNZ012-013-036-069-073-074-280000-
CENTRAL EAST TENNESSEE

CITY           SKY/WX    TMP DP  RH WIND       PRES   REMARKS
KNOXVILLE      MOSUNNY   77  49  37 N6        30.07F
OAK RIDGE      SUNNY     79  48  33 CALM      30.09S
DOWNTOWN KNOXV SUNNY     77  59  53 CALM      30.07S
GATLINBURG     SUNNY     79  45  29 CALM      30.07F
MORRISTOWN     MOSUNNY   75  50  41 NW5       30.09S
JACKSBORO      SUNNY     77  46  33 CALM      30.12F
$$

TNZ083-085-099-280000-
SOUTHEAST TENNESSEE

CITY           SKY/WX    TMP DP  RH WIND       PRES   REMARKS
CHATTANOOGA    MOSUNNY   80  51  36 VRB6      30.07S
DAYTON         CLEAR     79  57  47 VRB5      30.06F
$$

SKY/WX REPORTED AS FAIR MEANS FEW OR NO CLOUDS BELOW
12 THOUSAND FEET.





USA.gov is the U.S. government's official web portal to all federal, state and local government web resources and services.